www.pogodaiklimat.ru

Погода и климат >> Архив погоды >> Казахстан >> Жанибек


ПОГОДА в Жанибеке

  • Прогноз погоды в Жанибеке
  • Монитор погоды в Жанибеке

АРХИВ ПОГОДЫ в Жанибеке

Время (UTC), дата Ветер
(напр.,м/с)
 
Видим.   Явления Облачность Т
(С)
Тd
(С)
f
(%)
Тe
(С)
Тes
(С)
Комфортность P
(гПа)
Po
(гПа)
Тmin
(С)
Tmax
(С)
R
(мм)
R24
(мм)
S
(см)
21 11.09 СВ 3 н/о 3/0
[Ac trans]
+13.0 +2.0 47 +12 +12 1029.3 1025.5
00 12.09 СВ 2 н/о 3/0
[Ci ing]
+11.1 +2.7 56 +10 +10 1029.1 1025.3
03 12.09 СВ 2 10 км 3/0
[Ci ing]
+8.9 +2.4 64 +7 +8 1029.5 1025.6
06 12.09 СВ 3 10 км ясно +22.4 +2.3 27 +22 +27 комфорт 1029.5 1025.8 +7.9
09 12.09 В 4 10 км 1/1 600 м
[Cu hum]
+26.8 +1.3 19 +25 +31 комфорт 1027.9 1024.3
12 12.09 В 3 10 км 4/4 600 м
[Cu med, cong]
+27.4 +1.1 18 +25 +28 комфорт 1026.6 1023.0
15 12.09 В 1 10 км 4/3 600 м
[Cu hum Ac cuf]
+25.4 +3.6 24 +24 +24 комфорт 1026.3 1022.7 +28.0
18 12.09 В 1 н/о 4/3 600 м
[Sc diur, vesp Ac trans]
+19.3 +2.8 33 +21 +21 комфорт 1026.6 1023.0 +28.0
21 12.09 СВ 2 н/о 3/3 600 м
[Sc diur, vesp]
+14.6 +2.6 44 +14 +14 1026.0 1022.3
00 13.09 В 2 н/о ясно +10.4 +1.7 55 +9 +9 1026.1 1022.3
03 13.09 В 1 10 км 3/3 600 м
[Sc diur, vesp]
+11.8 +1.9 51 +12 +12 1026.3 1022.5
06 13.09 В 1 10 км 3/0
[Ac cast]
+23.1 +5.8 33 +24 +29 комфорт 1026.6 1023.0 +8.9
09 13.09 Ю 2 10 км 6/6 600 м
[Cu med, cong]
+28.2 +2.5 19 +26 +30 жарко 1025.3 1021.7
12 13.09 Ю 2 10 км 8/8 600 м
[Cu med, cong]
+27.7 +0.6 17 +26 +27 жарко 1023.8 1020.3
15 13.09 ЮВ 1 10 км 8/4 600 м
[Cu med, cong Ac cuf]
+23.5 +5.9 32 +24 +24 комфорт 1023.2 1019.6 +29.0
18 13.09 Ю 2 н/о 3/3 600 м
[Sc diur, vesp]
+20.2 +1.7 29 +21 +21 комфорт 1023.3 1019.7 +29.0
21 13.09 Ю 2 н/о 3/0
[Ac trans]
+16.4 +0.9 35 +17 +17 1022.7 1019.0
00 14.09 ЮЗ 2 н/о 3/0
[Ac trans]
+13.0 +2.7 50 +13 +13 1022.2 1018.5
03 14.09 ЮЗ 2 10 км 6/4 600 м
[Sc Ac trans]
+12.2 +2.7 52 +12 +12 1022.0 1018.3
06 14.09 ЮЗ 3 10 км 8/3 600 м
[Cu med, cong Ac cuf]
+22.3 +1.8 26 +22 +24 комфорт 1021.7 1018.1 +10.9
09 14.09 ЮЗ 3 10 км 8/6 600 м
[Cu med, cong Ac cuf]
+26.6 -0.3 17 +25 +27 комфорт 1020.3 1016.7
12 14.09 ЮЗ 4 10 км 8/4 600 м
[Cu med, cong Ac cuf Ci sp]
+28.5 -1.2 14 +26 +27 жарко 1018.9 1015.3
15 14.09 Ю 2 10 км 8/8 600 м
[Sc diur, vesp]
+25.2 -2.3 16 +23 +23 комфорт 1018.1 1014.5 +29.0
18 14.09 Ю 3 н/о 8/4 600 м
[Sc diur, vesp Ac trans]
+20.0 +3.2 33 +21 +21 комфорт 1017.9 1014.3 +29.0
21 14.09 Ю 4 н/о 8/0
[Ac und]
+18.9 +0.9 30 +19 +19 1017.5 1013.9
00 15.09 ЮЗ 3 н/о 9/4 600 м
[Sc Ac und]
+17.4 +3.0 38 +17 +17 1016.5 1012.8
03 15.09 Ю 3 10 км 9/8 600 м
[Sc Ac und]
+16.4 +2.9 40 +16 +16 1016.0 1012.3
06 15.09 СЗ 3 10 км 9/4 600 м
[Cu med, cong Ac und]
+18.0 +6.7 48 +18 +19 1017.0 1013.3 +16.1
09 15.09 С 3 10 км 9/0
[Ac cuf Cc]
+19.0 +8.1 49 +20 +25 1016.9 1013.2
12 15.09 СЗ 5 10 км 9/6 600 м
[Cu med, cong As op]
+17.6 +5.9 46 +17 +18 1017.3 1013.6
15 15.09 СЗ 1 10 км {ливн. осадки} 6/6 600 м
[Cu hum]
+14.9 +10.9 77 +15 +15 1017.1 1013.4 +20.3
18 15.09 З 2 н/о 6/0
[Ci fib]
+10.3 +6.7 78 +9 +9 1018.2 1014.4 +20.3 0.4
21 15.09 СЗ 1 н/о 8/0
[Cs]
+6.9 +3.1 77 +6 +6 1018.3 1014.5
00 16.09 штиль 0 н/о 4/0
[Ci ing]
+5.4 +2.4 81 +5 +5 1018.3 1014.5
03 16.09 Ю 2 10 км 8/0
[Cs]
+5.0 +2.3 83 +2 +2 1017.9 1014.1
06 16.09 ЮЗ 4 10 км 6/0
[Cs]
+17.8 +1.4 33 +18 +21 1016.6 1012.9 +4.1
09 16.09 ЮЗ 8 10 км 3/0
[Ci sp]
+22.3 -2.4 19 +21 +23 комфорт 1014.0 1010.4
12 16.09 ЮЗ 6
{15}
10 км 3/0
[Ci sp]
+23.6 -4.4 15 +22 +24 комфорт 1011.0 1007.4
15 16.09 ЮЗ 5 10 км 5/0
[Ci ing]
+21.7 -2.9 19 +21 +21 комфорт 1009.7 1006.1 +24.3
18 16.09 ЮЗ 4 н/о 8/0
[Ci ing]
+18.3 -3.0 23 +18 +18 1009.7 1006.1 +24.3
21 16.09 ЮЗ 3 н/о 3/0
[Ci ing]
+13.8 -1.3 35 +13 +13 1009.0 1005.3
00 17.09 Ю 3 н/о 4/0
[Ci ing]
+13.4 -0.5 38 +13 +13 1007.9 1004.2
03 17.09 Ю 3 10 км 4/0
[Ac trans Ci sp]
+10.5 +0.8 51 +9 +9 1007.8 1004.1
06 17.09 ЮЗ 4 10 км 6/0
[Ac trans Cc]
+19.2 +1.5 31 +19 +22 1007.3 1003.7 +9.8
09 17.09 ЮЗ 6 10 км 8/0
[Ac und Cc]
+25.2 +2.0 22 +24 +26 комфорт 1005.7 1002.2
12 17.09 З 6 10 км 8/4 600 м
[Cu med, cong Ac cuf Ci sp]
+26.4 +3.4 23 +25 +26 комфорт 1004.1 1000.6
15 17.09 С 2 10 км 8/4 600 м
[Sc diur, vesp Ac cuf Ci sp]
+21.9 +5.8 35 +22 +22 комфорт 1004.2 1000.7 +28.0
18 17.09 штиль 0 н/о 10/10 600 м
[Sc diur, vesp]
+18.7 +7.3 47 +19 +19 1005.4 1001.8 +28.0
21 17.09 З 4 н/о {ливн. осадки} 9/9 600 м
[Cu med, cong]
+16.7 +10.3 66 +16 +16 1005.9 1002.2
00 18.09 ЮЗ 4 н/о 8/0
[Ac cuf Ci ing]
+14.4 +10.0 75 +13 +13 1006.3 1002.7
03 18.09 З 2 10 км 4/0
[Cs]
+10.6 +9.2 91 +9 +9 1007.0 1003.3
06 18.09 З 4 10 км ясно +15.9 +8.0 59 +15 +19 1007.8 1004.2 +10.2 0.0
09 18.09 ЮЗ 6 10 км 3/3 600 м
[Cu hum]
+21.4 +2.4 28 +21 +24 комфорт 1007.1 1003.5
12 18.09 З 6 10 км 6/4 600 м
[Cu med, cong Ci ing]
+22.9 +6.0 33 +23 +24 комфорт 1005.2 1001.7
18 18.09 Ю 6 н/о {ливн. осадки} 10/8 600 м
[Sc diur, vesp As op]
+17.5 +15.1 86 +17 +17 1001.2 997.6 +23.8

 

Местоположение метеостанции Жанибек (Западно-Казахстанская область, Казахстан): широта 49.40 долгота 46.80 высота над уровнем моря 28 м.

В архиве по умолчанию представлена погода в Жанибеке за последнюю неделю. Архивные данные за месяц целиком и за предыдущие месяцы, начиная с января 2011 года, Вы можете получить, выбрав интересующий диапазон дат из раскрывающегося списка и нажав кнопку "Ввод!".


*Определитесь, кто Вы:
робот инопланетянин человек

Внимание! Время в таблицах - всемирное. Для получения местного времени необходимо прибавить поправку, которая равна 4 ч.

Смотрите также архив погоды в соседних городах и на ближайших метеорологических станциях:

Погода в Жанаказане (Западно-Казахстанская область, Казахстан) (18 км)
Погода в Эльтоне (Волгоградская область, Россия) (30 км)
Погода в Палласовке (Волгоградская область, Россия) (73 км)
Погода в Урде (Западно-Казахстанская область, Казахстан) (84 км)
Погода в Камышине (Волгоградская область, Россия) (127 км)
Погода в Верхнем Баскунчаке (Астраханская область, Россия) (131 км)
Погода в Казталовке (Западно-Казахстанская область, Казахстан) (141 км)
Погода в Новоузенске (Саратовская область, Россия) (149 км)
Погода в Александровом Гае (Саратовская область, Россия) (151 км)
Погода в Черный Яр (Астраханская область, Россия) (156 км)

Пояснения к столбцам:

Ветер - указаны скорость ветра в м/с - средняя за 10 мин, порывы в срок и между сроками (в фигурных скобках) и направление, откуда дует ветер: С - северный, СВ - северо-восточный, В - восточный, ЮВ - юго-восточный, Ю - южный, ЮЗ - юго-западный, З - западный, СЗ - северо-западный.
Видимость - горизонтальная дальность видимости в метрах или километрах. При видимости от 1 до 10 км при отсутствии осадков обычно наблюдается дымка, при ухудшении видимости до 1 км и менее - туман. В сухую погоду видимость может ухудшаться дымом, пылью или мглою.
Явления - указаны атмосферные явления, наблюдавшиеся в срок или в последний час перед сроком; фигурными скобками обозначены явления, наблюдавшиеся между сроками (за 1-3 часа до срока); квадратными скобками обозначены град или гололедные отложения с указанием их диаметра в мм.
Облачность - указаны через наклонную черту общая и нижняя облачность в баллах и высота нижней границы облаков в метрах; квадратными скобками обозначены формы облаков: Ci - перистые, Cs - перисто-слоистые, Cc - перисто-кучевые, Ac - высококучевые, As - высокослоистые, Sc - слоисто-кучевые, Ns - слоисто-дождевые, Cu - кучевые, Cb - кучево-дождевые. Подробнее классификацию облаков см. в Атласе облаков (PDF).
T - Температура воздуха - температура, измеренная на высоте 2 м над землей.
Td - Температура точки росы - температура, при понижении до которой содержащийся в воздухе водяной пар достигнет насыщения.
f - Относительная влажность воздуха - влажноcть воздуха, измеренная на высоте 2 м над землей.
Te - Эффективная температура - температура, которую ощущает одетый по сезону человек в тени. Характеристика душности погоды. При расчете учитывается влияние влажности воздуха и скорости ветра на теплоощущения человека.
Tes - Эффективная температура на солнце - температура, которую ощущает человек, с поправкой на солнечный нагрев. Характеристика знойности погоды. Зависит от высоты солнца над горизонтом, облачности и скорости ветра. Ночью, в пасмурную погоду, а также при ветре 12 м/с и более поправка равна нулю.
P - Атмосферное давление - приведенное к уровню моря атмосферное давление.
Po - Атмосферное давление - измеренное на уровне метеостанции атмосферное давление.
Tmin - Минимальная температура - минимум температуры воздуха на высоте 2 м над землей.
Tmax - Максимальная температура - максимум температуры воздуха на высоте 2 м над землей.
R - Количество осадков - Количество выпавших осадков за период времени, мм. При наведении курсора мыши на число - период времени, за который выпало указанное количество осадков.
R24 - Количество осадков - Количество выпавших осадков за 24 часа, мм.
S - Снежный покров - Высота снежного покрова, см. При наведении курсора мыши на число - состояние снежного покрова и степень покрытия местности в баллах.